| time (UTC) | temp C | wind direction | speed KPH | gust KPH | rain 1hr cm | rain 24hr cm | rain mn cm | humidity % | barometer mb |
| 20260506002238 | 10 | 187 | 4.8 | 8.0 | 0.00 | 0.03 | 0.00 | 74 | 1010.0 |
| 20260506001937 | 10 | 211 | 4.8 | 9.7 | 0.00 | 0.03 | 0.00 | 75 | 1009.9 |
| 20260506001636 | 10 | 221 | 6.4 | 11.3 | 0.00 | 0.03 | 0.00 | 75 | 1009.9 |
| 20260506001335 | 10 | 223 | 8.0 | 11.3 | 0.00 | 0.03 | 0.00 | 75 | 1010.0 |
| 20260506001034 | 11 | 224 | 9.7 | 11.3 | 0.00 | 0.03 | 0.00 | 75 | 1010.0 |
| 20260506000733 | 11 | 225 | 9.7 | 11.3 | 0.00 | 0.03 | 0.00 | 75 | 1010.1 |
| 20260506000432 | 11 | 224 | 9.7 | 11.3 | 0.00 | 0.03 | 0.00 | 75 | 1010.2 |
| 20260506000131 | 11 | 223 | 9.7 | 11.3 | 0.00 | 0.03 | 0.00 | 75 | 1010.2 |
| 20260505235830 | 11 | 223 | 9.7 | 11.3 | 0.00 | 0.03 | 0.00 | 75 | 1010.2 |
| 20260505235530 | 11 | 216 | 11.3 | 11.3 | 0.00 | 0.03 | 0.00 | 75 | 1010.2 |
| 20260505235229 | 11 | 224 | 8.0 | 9.7 | 0.00 | 0.03 | 0.00 | 75 | 1010.2 |
| 20260505234928 | 11 | 225 | 8.0 | 11.3 | 0.00 | 0.03 | 0.00 | 75 | 1010.2 |
| 20260505234627 | 11 | 225 | 8.0 | 11.3 | 0.00 | 0.03 | 0.00 | 75 | 1010.3 |
| 20260505234326 | 11 | 223 | 9.7 | 11.3 | 0.00 | 0.03 | 0.00 | 76 | 1010.2 |
| 20260505234025 | 11 | 225 | 8.0 | 11.3 | 0.00 | 0.03 | 0.00 | 76 | 1010.2 |
| 20260505233724 | 11 | 225 | 8.0 | 11.3 | 0.00 | 0.03 | 0.00 | 75 | 1010.4 |
| 20260505233424 | 11 | 223 | 8.0 | 11.3 | 0.00 | 0.03 | 0.00 | 75 | 1010.4 |
| 20260505233123 | 11 | 225 | 8.0 | 12.9 | 0.00 | 0.03 | 0.00 | 75 | 1010.3 |
| 20260505232822 | 11 | 223 | 9.7 | 16.1 | 0.00 | 0.03 | 0.00 | 74 | 1010.4 |
| 20260505232521 | 11 | 218 | 8.0 | 16.1 | 0.00 | 0.03 | 0.00 | 74 | 1010.4 |
| 20260505232220 | 11 | 219 | 12.9 | 16.1 | 0.00 | 0.03 | 0.00 | 74 | 1010.4 |
| 20260505231919 | 11 | 218 | 11.3 | 14.5 | 0.00 | 0.03 | 0.00 | 74 | 1010.4 |
| 20260505231618 | 11 | 225 | 12.9 | 14.5 | 0.00 | 0.03 | 0.00 | 75 | 1010.4 |
| 20260505231317 | 11 | 225 | 12.9 | 14.5 | 0.00 | 0.03 | 0.00 | 74 | 1010.4 |
| 20260505231016 | 11 | 225 | 12.9 | 14.5 | 0.00 | 0.03 | 0.00 | 75 | 1010.3 |
| 20260505230716 | 11 | 225 | 11.3 | 14.5 | 0.00 | 0.03 | 0.00 | 75 | 1010.4 |
| 20260505230415 | 11 | 225 | 12.9 | 14.5 | 0.00 | 0.03 | 0.00 | 75 | 1010.2 |
| 20260505230114 | 11 | 225 | 11.3 | 16.1 | 0.00 | 0.03 | 0.00 | 74 | 1010.3 |
| 20260505225813 | 11 | 225 | 9.7 | 16.1 | 0.00 | 0.03 | 0.00 | 75 | 1010.3 |
| 20260505225512 | 11 | 226 | 9.7 | 16.1 | 0.00 | 0.03 | 0.00 | 75 | 1010.5 |
| 20260505225211 | 11 | 225 | 9.7 | 12.9 | 0.00 | 0.03 | 0.00 | 75 | 1010.5 |
| 20260505224910 | 11 | 230 | 9.7 | 12.9 | 0.00 | 0.03 | 0.00 | 75 | 1010.6 |
| 20260505224609 | 11 | 225 | 11.3 | 12.9 | 0.00 | 0.03 | 0.00 | 75 | 1010.6 |
| 20260505224308 | 11 | 225 | 11.3 | 12.9 | 0.00 | 0.03 | 0.00 | 75 | 1010.6 |
| 20260505224008 | 12 | 225 | 11.3 | 12.9 | 0.00 | 0.03 | 0.00 | 75 | 1010.6 |
| 20260505223707 | 12 | 225 | 8.0 | 12.9 | 0.00 | 0.03 | 0.00 | 75 | 1010.6 |
| 20260505223406 | 12 | 210 | 8.0 | 14.5 | 0.00 | 0.03 | 0.00 | 74 | 1010.6 |
| 20260505223105 | 12 | 208 | 9.7 | 14.5 | 0.00 | 0.03 | 0.00 | 74 | 1010.6 |
| 20260505222804 | 12 | 212 | 9.7 | 16.1 | 0.00 | 0.03 | 0.00 | 74 | 1010.6 |
| 20260505222503 | 12 | 210 | 11.3 | 16.1 | 0.00 | 0.03 | 0.00 | 74 | 1010.5 |
| 20260505222202 | 12 | 219 | 11.3 | 16.1 | 0.00 | 0.03 | 0.00 | 74 | 1010.5 |
| 20260505221901 | 12 | 219 | 8.0 | 12.9 | 0.00 | 0.03 | 0.00 | 74 | 1010.4 |
| 20260505221302 | 12 | 221 | 6.4 | 17.7 | 0.00 | 0.03 | 0.00 | 74 | 1010.5 |
| 20260505220958 | 12 | 207 | 12.9 | 17.7 | 0.00 | 0.03 | 0.00 | 74 | 1010.5 |
| 20260505220657 | 12 | 212 | 9.7 | 16.1 | 0.00 | 0.03 | 0.00 | 75 | 1010.5 |
| 20260505220357 | 12 | 215 | 9.7 | 16.1 | 0.00 | 0.03 | 0.00 | 76 | 1010.6 |
| 20260505220056 | 12 | 222 | 12.9 | 16.1 | 0.00 | 0.03 | 0.00 | 76 | 1010.5 |
| 20260505215755 | 12 | 220 | 12.9 | 17.7 | 0.00 | 0.03 | 0.00 | 76 | 1010.4 |
| 20260505215454 | 12 | 219 | 12.9 | 17.7 | 0.00 | 0.03 | 0.00 | 77 | 1010.5 |
| 20260505215153 | 12 | 225 | 14.5 | 17.7 | 0.00 | 0.03 | 0.00 | 77 | 1010.4 |
| 20260505214852 | 12 | 224 | 14.5 | 16.1 | 0.00 | 0.03 | 0.00 | 77 | 1010.4 |
| 20260505214552 | 12 | 225 | 12.9 | 19.3 | 0.00 | 0.03 | 0.00 | 77 | 1010.4 |
| 20260505214251 | 12 | 225 | 14.5 | 22.5 | 0.00 | 0.03 | 0.00 | 77 | 1010.5 |
| 20260505213950 | 12 | 225 | 16.1 | 22.5 | 0.00 | 0.03 | 0.00 | 77 | 1010.6 |
| 20260505213649 | 12 | 225 | 16.1 | 22.5 | 0.00 | 0.03 | 0.00 | 76 | 1010.6 |
| 20260505213348 | 12 | 221 | 17.7 | 20.9 | 0.00 | 0.03 | 0.00 | 77 | 1010.6 |
| 20260505213047 | 12 | 218 | 14.5 | 17.7 | 0.00 | 0.03 | 0.00 | 76 | 1010.5 |
| 20260505212746 | 12 | 225 | 12.9 | 17.7 | 0.00 | 0.03 | 0.00 | 76 | 1010.6 |
| 20260505212445 | 12 | 220 | 12.9 | 17.7 | 0.00 | 0.03 | 0.00 | 76 | 1010.4 |
| 20260505212145 | 12 | 225 | 11.3 | 12.9 | 0.00 | 0.03 | 0.00 | 75 | 1010.4 |
| 20260505211844 | 12 | 223 | 8.0 | 12.9 | 0.00 | 0.03 | 0.00 | 75 | 1010.3 |
| 20260505211543 | 12 | 235 | 8.0 | 12.9 | 0.00 | 0.03 | 0.00 | 75 | 1010.2 |
| 20260505211242 | 12 | 230 | 9.7 | 19.3 | 0.00 | 0.03 | 0.00 | 75 | 1010.4 |
| 20260505210941 | 12 | 223 | 9.7 | 22.5 | 0.00 | 0.03 | 0.00 | 75 | 1010.3 |
| 20260505210640 | 12 | 225 | 14.5 | 27.4 | 0.00 | 0.03 | 0.00 | 75 | 1010.3 |
| 20260505210339 | 12 | 228 | 16.1 | 27.4 | 0.00 | 0.03 | 0.00 | 74 | 1010.4 |
| 20260505210038 | 12 | 224 | 19.3 | 27.4 | 0.00 | 0.03 | 0.00 | 74 | 1010.4 |
| 20260505205737 | 13 | 241 | 11.3 | 24.1 | 0.00 | 0.03 | 0.00 | 72 | 1010.3 |
| 20260505205437 | 13 | 235 | 14.5 | 24.1 | 0.00 | 0.03 | 0.00 | 73 | 1010.4 |
| 20260505205136 | 13 | 227 | 16.1 | 24.1 | 0.00 | 0.03 | 0.00 | 72 | 1010.6 |
| 20260505204835 | 13 | 234 | 16.1 | 24.1 | 0.00 | 0.03 | 0.00 | 70 | 1010.5 |
| 20260505204533 | 13 | 237 | 17.7 | 27.4 | 0.00 | 0.03 | 0.00 | 70 | 1010.6 |
| 20260505204232 | 13 | 236 | 17.7 | 27.4 | 0.00 | 0.03 | 0.00 | 70 | 1010.6 |
| 20260505203931 | 13 | 247 | 16.1 | 29.0 | 0.00 | 0.03 | 0.00 | 70 | 1010.6 |
| 20260505203630 | 13 | 249 | 17.7 | 33.8 | 0.00 | 0.03 | 0.00 | 70 | 1010.5 |
| 20260505203329 | 13 | 255 | 19.3 | 33.8 | 0.00 | 0.03 | 0.00 | 70 | 1010.5 |
| 20260505203028 | 13 | 243 | 24.1 | 33.8 | 0.00 | 0.03 | 0.00 | 70 | 1010.5 |
| 20260505202728 | 13 | 245 | 19.3 | 43.5 | 0.00 | 0.03 | 0.00 | 71 | 1010.6 |
| 20260505202126 | 13 | 238 | 27.4 | 43.5 | 0.00 | 0.03 | 0.00 | 71 | 1010.5 |
| 20260505201825 | 14 | 234 | 27.4 | 43.5 | 0.00 | 0.03 | 0.00 | 72 | 1010.7 |
| 20260505201524 | 14 | 239 | 22.5 | 35.4 | 0.00 | 0.03 | 0.00 | 73 | 1010.5 |
| 20260505201223 | 14 | 233 | 22.5 | 35.4 | 0.00 | 0.03 | 0.00 | 73 | 1010.5 |
| 20260505200922 | 14 | 234 | 25.7 | 35.4 | 0.00 | 0.03 | 0.00 | 74 | 1010.4 |
| 20260505200621 | 14 | 230 | 22.5 | 30.6 | 0.00 | 0.03 | 0.00 | 73 | 1010.4 |
| 20260505200320 | 14 | 234 | 20.9 | 30.6 | 0.00 | 0.03 | 0.00 | 73 | 1010.4 |
| 20260505200019 | 14 | 244 | 19.3 | 30.6 | 0.00 | 0.03 | 0.00 | 73 | 1010.3 |
| 20260505195718 | 13 | 234 | 19.3 | 25.7 | 0.00 | 0.03 | 0.00 | 73 | 1010.3 |
| 20260505195418 | 13 | 234 | 17.7 | 24.1 | 0.00 | 0.03 | 0.00 | 73 | 1010.2 |
| 20260505195117 | 13 | 228 | 17.7 | 25.7 | 0.00 | 0.03 | 0.00 | 73 | 1010.1 |
| 20260505194816 | 13 | 227 | 16.1 | 25.7 | 0.00 | 0.03 | 0.00 | 74 | 1010.1 |
| 20260505194515 | 13 | 230 | 19.3 | 25.7 | 0.00 | 0.03 | 0.00 | 74 | 1010.1 |
| 20260505194214 | 13 | 225 | 12.9 | 17.7 | 0.00 | 0.03 | 0.00 | 75 | 1009.9 |
| 20260505193913 | 13 | 225 | 14.5 | 17.7 | 0.00 | 0.03 | 0.00 | 75 | 1009.9 |
| 20260505193612 | 13 | 226 | 12.9 | 16.1 | 0.00 | 0.03 | 0.00 | 74 | 1009.8 |
| 20260505193311 | 13 | 225 | 11.3 | 14.5 | 0.00 | 0.03 | 0.00 | 74 | 1009.7 |
| 20260505193010 | 13 | 233 | 9.7 | 12.9 | 0.00 | 0.03 | 0.00 | 74 | 1009.6 |
| 20260505192709 | 14 | 229 | 9.7 | 12.9 | 0.00 | 0.03 | 0.00 | 73 | 1009.5 |
| 20260505192409 | 13 | 229 | 9.7 | 12.9 | 0.00 | 0.03 | 0.00 | 74 | 1009.5 |
| 20260505192108 | 13 | 227 | 9.7 | 11.3 | 0.00 | 0.03 | 0.00 | 73 | 1009.4 |
| 20260505191807 | 14 | 228 | 8.0 | 11.3 | 0.00 | 0.03 | 0.00 | 73 | 1009.4 |
| 20260505191506 | 14 | 249 | 8.0 | 11.3 | 0.00 | 0.03 | 0.00 | 73 | 1009.3 |
| 20260505191205 | 14 | 242 | 8.0 | 11.3 | 0.00 | 0.03 | 0.00 | 73 | 1009.4 |
| 20260505190904 | 14 | 252 | 6.4 | 11.3 | 0.00 | 0.03 | 0.00 | 74 | 1009.3 |
| 20260505190603 | 14 | 254 | 6.4 | 11.3 | 0.00 | 0.03 | 0.00 | 74 | 1009.3 |
| 20260505190302 | 13 | 247 | 8.0 | 11.3 | 0.00 | 0.03 | 0.00 | 74 | 1009.3 |
| 20260505190001 | 13 | 261 | 6.4 | 11.3 | 0.00 | 0.03 | 0.00 | 74 | 1009.3 |
| 20260505185701 | 14 | 259 | 8.0 | 11.3 | 0.00 | 0.03 | 0.00 | 74 | 1009.3 |
| 20260505185400 | 14 | 267 | 6.4 | 11.3 | 0.00 | 0.03 | 0.00 | 73 | 1009.2 |
| 20260505185059 | 14 | 264 | 8.0 | 11.3 | 0.00 | 0.03 | 0.00 | 73 | 1009.1 |
| 20260505184758 | 14 | 259 | 8.0 | 11.3 | 0.00 | 0.03 | 0.00 | 73 | 1009.2 |
| 20260505184457 | 14 | 270 | 8.0 | 11.3 | 0.00 | 0.03 | 0.00 | 72 | 1009.1 |
| 20260505184156 | 14 | 260 | 8.0 | 11.3 | 0.00 | 0.03 | 0.00 | 71 | 1009.1 |
| 20260505183856 | 14 | 265 | 8.0 | 12.9 | 0.00 | 0.03 | 0.00 | 71 | 1009.0 |
| 20260505183555 | 14 | 262 | 8.0 | 14.5 | 0.00 | 0.03 | 0.00 | 70 | 1008.9 |
| 20260505183254 | 14 | 262 | 8.0 | 14.5 | 0.00 | 0.03 | 0.00 | 70 | 1009.0 |
| 20260505182953 | 14 | 249 | 9.7 | 14.5 | 0.00 | 0.03 | 0.00 | 70 | 1008.9 |
| 20260505182652 | 14 | 260 | 8.0 | 12.9 | 0.00 | 0.03 | 0.00 | 70 | 1008.8 |
| 20260505182351 | 15 | 254 | 8.0 | 11.3 | 0.00 | 0.03 | 0.00 | 70 | 1008.7 |
| 20260505182050 | 15 | 243 | 4.8 | 9.7 | 0.00 | 0.03 | 0.00 | 69 | 1008.7 |
| 20260505181749 | 15 | 256 | 4.8 | 8.0 | 0.00 | 0.03 | 0.00 | 68 | 1008.6 |
| 20260505181449 | 15 | 263 | 4.8 | 9.7 | 0.00 | 0.03 | 0.00 | 68 | 1008.5 |
| 20260505181147 | 15 | 251 | 4.8 | 11.3 | 0.00 | 0.03 | 0.00 | 68 | 1008.4 |
| 20260505180846 | 15 | 270 | 6.4 | 11.3 | 0.00 | 0.03 | 0.00 | 69 | 1008.4 |
| 20260505180546 | 15 | 270 | 8.0 | 11.3 | 0.00 | 0.03 | 0.00 | 68 | 1008.4 |
| 20260505180245 | 15 | 260 | 4.8 | 8.0 | 0.00 | 0.03 | 0.00 | 66 | 1008.2 |
| 20260505175944 | 15 | 345 | 1.6 | 3.2 | 0.00 | 0.03 | 0.00 | 64 | 1008.1 |
| 20260505175643 | 15 | 338 | 0.0 | 3.2 | 0.00 | 0.03 | 0.00 | 63 | 1008.0 |
| 20260505175342 | 15 | 257 | 0.0 | 3.2 | 0.03 | 0.03 | 0.00 | 65 | 1008.0 |
| 20260505175041 | 15 | 224 | 1.6 | 4.8 | 0.03 | 0.03 | 0.00 | 64 | 1008.0 |
| 20260505174740 | 15 | 170 | 0.0 | 6.4 | 0.03 | 0.03 | 0.00 | 64 | 1008.0 |
| 20260505174440 | 15 | 51 | 3.2 | 9.7 | 0.03 | 0.03 | 0.00 | 63 | 1007.9 |
| 20260505174139 | 15 | 70 | 4.8 | 9.7 | 0.03 | 0.03 | 0.00 | 63 | 1007.9 |
| 20260505173838 | 15 | 25 | 4.8 | 9.7 | 0.03 | 0.03 | 0.00 | 62 | 1007.9 |
| 20260505173537 | 15 | 25 | 4.8 | 9.7 | 0.03 | 0.03 | 0.00 | 62 | 1008.1 |
| 20260505173236 | 15 | 21 | 3.2 | 9.7 | 0.03 | 0.03 | 0.00 | 64 | 1008.1 |
| 20260505172935 | 15 | 42 | 3.2 | 9.7 | 0.03 | 0.03 | 0.00 | 65 | 1008.0 |
| 20260505172634 | 15 | 43 | 4.8 | 9.7 | 0.03 | 0.03 | 0.00 | 66 | 1007.9 |
| 20260505172333 | 15 | 35 | 4.8 | 11.3 | 0.03 | 0.03 | 0.00 | 65 | 1008.0 |
| 20260505172032 | 15 | 347 | 4.8 | 11.3 | 0.03 | 0.03 | 0.00 | 66 | 1008.0 |
| 20260505171731 | 15 | 322 | 8.0 | 11.3 | 0.03 | 0.03 | 0.00 | 64 | 1008.1 |
| 20260505171430 | 15 | 11 | 3.2 | 11.3 | 0.03 | 0.03 | 0.00 | 62 | 1008.1 |
| 20260505171129 | 15 | 321 | 6.4 | 11.3 | 0.03 | 0.03 | 0.00 | 61 | 1008.2 |
| 20260505170828 | 15 | 306 | 6.4 | 11.3 | 0.03 | 0.03 | 0.00 | 61 | 1008.3 |
| 20260505170528 | 16 | 307 | 4.8 | 11.3 | 0.03 | 0.03 | 0.00 | 61 | 1008.4 |
| 20260505170227 | 16 | 304 | 4.8 | 11.3 | 0.00 | 0.00 | 0.00 | 61 | 1008.4 |
| 20260505165926 | 16 | 312 | 6.4 | 11.3 | 0.00 | 0.00 | 0.00 | 60 | 1008.3 |
| 20260505165625 | 16 | 308 | 4.8 | 14.5 | 0.00 | 0.00 | 0.00 | 61 | 1008.3 |
| 20260505165324 | 16 | 293 | 6.4 | 14.5 | 0.00 | 0.00 | 0.00 | 60 | 1008.5 |
| 20260505165023 | 16 | 302 | 6.4 | 19.3 | 0.00 | 0.00 | 0.00 | 60 | 1008.4 |
| 20260505164722 | 16 | 302 | 8.0 | 22.5 | 0.00 | 0.00 | 0.00 | 60 | 1008.5 |
| 20260505164421 | 16 | 301 | 9.7 | 22.5 | 0.00 | 0.00 | 0.00 | 59 | 1008.6 |
| 20260505164120 | 16 | 303 | 11.3 | 22.5 | 0.00 | 0.00 | 0.00 | 59 | 1008.5 |
| 20260505163819 | 16 | 285 | 11.3 | 20.9 | 0.00 | 0.00 | 0.00 | 57 | 1008.5 |
| 20260505163519 | 16 | 281 | 9.7 | 20.9 | 0.00 | 0.00 | 0.00 | 57 | 1008.5 |
| 20260505163217 | 16 | 280 | 9.7 | 20.9 | 0.00 | 0.00 | 0.00 | 58 | 1008.5 |
| 20260505162917 | 16 | 257 | 12.9 | 20.9 | 0.00 | 0.00 | 0.00 | 59 | 1008.5 |
| 20260505162616 | 16 | 256 | 11.3 | 19.3 | 0.00 | 0.00 | 0.00 | 60 | 1008.7 |
| 20260505162315 | 16 | 275 | 9.7 | 19.3 | 0.00 | 0.00 | 0.00 | 60 | 1008.6 |
| 20260505162014 | 16 | 296 | 9.7 | 19.3 | 0.00 | 0.00 | 0.00 | 58 | 1008.6 |
| 20260505161713 | 16 | 302 | 8.0 | 16.1 | 0.00 | 0.00 | 0.00 | 58 | 1008.5 |
| 20260505161412 | 16 | 311 | 6.4 | 16.1 | 0.00 | 0.00 | 0.00 | 57 | 1008.4 |
| 20260505161111 | 16 | 300 | 8.0 | 16.1 | 0.00 | 0.00 | 0.00 | 57 | 1008.5 |
| 20260505160811 | 16 | 308 | 6.4 | 17.7 | 0.00 | 0.00 | 0.00 | 56 | 1008.4 |
| 20260505160510 | 16 | 315 | 9.7 | 17.7 | 0.00 | 0.00 | 0.00 | 56 | 1008.3 |
| 20260505160209 | 16 | 307 | 8.0 | 17.7 | 0.00 | 0.00 | 0.00 | 55 | 1008.3 |
| 20260505153159 | 17 | 311 | 12.9 | 24.1 | 0.00 | 0.00 | 0.00 | 54 | 1008.2 |
| 20260505152858 | 17 | 304 | 11.3 | 22.5 | 0.00 | 0.00 | 0.00 | 53 | 1008.3 |
| 20260505152557 | 17 | 307 | 11.3 | 22.5 | 0.00 | 0.00 | 0.00 | 53 | 1008.2 |
| 20260505152257 | 17 | 307 | 12.9 | 22.5 | 0.00 | 0.00 | 0.00 | 51 | 1008.3 |
| 20260505151956 | 18 | 286 | 8.0 | 20.9 | 0.00 | 0.00 | 0.00 | 52 | 1008.4 |
| 20260505151655 | 17 | 275 | 9.7 | 20.9 | 0.00 | 0.00 | 0.00 | 53 | 1008.3 |
| 20260505151354 | 17 | 254 | 11.3 | 20.9 | 0.00 | 0.00 | 0.00 | 54 | 1008.3 |
| 20260505151053 | 17 | 254 | 11.3 | 19.3 | 0.00 | 0.00 | 0.00 | 53 | 1008.3 |
| 20260505150752 | 17 | 288 | 8.0 | 17.7 | 0.00 | 0.00 | 0.00 | 54 | 1008.4 |
| 20260505150451 | 17 | 250 | 9.7 | 17.7 | 0.00 | 0.00 | 0.00 | 55 | 1008.3 |
| 20260505150150 | 17 | 268 | 9.7 | 17.7 | 0.00 | 0.00 | 0.00 | 55 | 1008.3 |
| 20260505140433 | 17 | 306 | 9.7 | 20.9 | 0.00 | 0.00 | 0.00 | 63 | 1008.5 |
| 20260505140132 | 17 | 304 | 9.7 | 19.3 | 0.00 | 0.00 | 0.00 | 62 | 1008.6 |
| 20260505130114 | 19 | 258 | 14.5 | 24.1 | 0.00 | 0.00 | 0.00 | 50 | 1008.5 |
| 20260505124911 | 18 | 250 | 16.1 | 29.0 | 0.00 | 0.00 | 0.00 | 49 | 1008.2 |
| 20260505124610 | 18 | 296 | 8.0 | 29.0 | 0.00 | 0.00 | 0.00 | 50 | 1008.2 |
| 20260505124005 | 18 | 258 | 12.9 | 25.7 | 0.00 | 0.00 | 0.00 | 51 | 1008.3 |
| 20260505123704 | 19 | 266 | 14.5 | 24.1 | 0.00 | 0.00 | 0.00 | 49 | 1008.2 |
| 20260505123403 | 19 | 253 | 16.1 | 24.1 | 0.00 | 0.00 | 0.00 | 50 | 1008.2 |
| 20260505123102 | 19 | 267 | 12.9 | 27.4 | 0.00 | 0.00 | 0.00 | 50 | 1008.3 |
| 20260505122801 | 19 | 275 | 11.3 | 27.4 | 0.00 | 0.00 | 0.00 | 50 | 1008.3 |
| 20260505122500 | 19 | 249 | 14.5 | 27.4 | 0.00 | 0.00 | 0.00 | 50 | 1008.2 |
| 20260505122159 | 19 | 249 | 12.9 | 27.4 | 0.00 | 0.00 | 0.00 | 50 | 1008.5 |
| 20260505121858 | 20 | 264 | 17.7 | 27.4 | 0.00 | 0.00 | 0.00 | 49 | 1008.4 |
| 20260505121558 | 20 | 258 | 17.7 | 27.4 | 0.00 | 0.00 | 0.00 | 49 | 1008.5 |
| 20260505121257 | 20 | 265 | 16.1 | 30.6 | 0.00 | 0.00 | 0.00 | 48 | 1008.4 |
| 20260505120956 | 20 | 257 | 14.5 | 30.6 | 0.00 | 0.00 | 0.00 | 48 | 1008.4 |
| 20260505120655 | 21 | 269 | 14.5 | 30.6 | 0.00 | 0.00 | 0.00 | 45 | 1008.4 |
| 20260505120354 | 21 | 294 | 6.4 | 16.1 | 0.00 | 0.00 | 0.00 | 43 | 1008.5 |
| 20260505120054 | 22 | 255 | 4.8 | 16.1 | 0.00 | 0.00 | 0.00 | 41 | 1008.4 |
| 20260505115753 | 22 | 220 | 4.8 | 16.1 | 0.00 | 0.00 | 0.00 | 42 | 1008.3 |
| 20260505115451 | 22 | 225 | 0.0 | 9.7 | 0.00 | 0.00 | 0.00 | 44 | 1008.5 |
| 20260505115403 | 22 | 225 | 4.8 | 16.1 | 0.00 | 0.53 | 0.00 | 44 | 1008.5 |
| 20260505115102 | 22 | 220 | 9.7 | 16.1 | 0.00 | 0.53 | 0.00 | 44 | 1008.5 |
| 20260505114801 | 21 | 244 | 9.7 | 14.5 | 0.00 | 0.53 | 0.00 | 46 | 1008.5 |
| 20260505114500 | 21 | 298 | 4.8 | 12.9 | 0.00 | 0.53 | 0.00 | 43 | 1008.4 |
| 20260505114159 | 21 | 267 | 3.2 | 12.9 | 0.00 | 0.53 | 0.00 | 43 | 1008.4 |
| 20260505113858 | 21 | 297 | 6.4 | 12.9 | 0.00 | 0.53 | 0.00 | 41 | 1008.4 |
| 20260505113558 | 21 | 81 | 4.8 | 11.3 | 0.00 | 0.53 | 0.00 | 40 | 1008.4 |
| 20260505113257 | 21 | 337 | 4.8 | 12.9 | 0.00 | 0.53 | 0.00 | 41 | 1008.5 |
| 20260505112956 | 21 | 315 | 4.8 | 12.9 | 0.00 | 0.53 | 0.00 | 43 | 1008.5 |
| 20260505112655 | 21 | 319 | 6.4 | 14.5 | 0.00 | 0.53 | 0.00 | 41 | 1008.4 |
| 20260505112354 | 21 | 294 | 3.2 | 14.5 | 0.00 | 0.53 | 0.00 | 41 | 1008.5 |
| 20260505112053 | 21 | 300 | 6.4 | 14.5 | 0.00 | 0.53 | 0.00 | 43 | 1008.5 |
| 20260505111752 | 21 | 253 | 4.8 | 12.9 | 0.00 | 0.53 | 0.00 | 42 | 1008.5 |
| 20260505111451 | 21 | 242 | 8.0 | 12.9 | 0.00 | 0.53 | 0.00 | 41 | 1008.5 |
| 20260505111151 | 21 | 270 | 6.4 | 11.3 | 0.00 | 0.53 | 0.00 | 40 | 1008.5 |
| 20260505110850 | 21 | 305 | 4.8 | 11.3 | 0.00 | 0.53 | 0.00 | 41 | 1008.6 |
| 20260505110549 | 21 | 240 | 4.8 | 11.3 | 0.00 | 0.53 | 0.00 | 42 | 1008.5 |
| 20260505110247 | 21 | 271 | 3.2 | 11.3 | 0.00 | 0.53 | 0.00 | 41 | 1008.5 |
| 20260505102035 | 19 | 34 | 4.8 | 9.7 | 0.00 | 0.53 | 0.00 | 47 | 1008.8 |
| 20260505101709 | 20 | 11 | 3.2 | 8.0 | 0.00 | 0.53 | 0.00 | 48 | 1009.0 |
| 20260505101408 | 20 | 46 | 3.2 | 8.0 | 0.00 | 0.53 | 0.00 | 49 | 1009.0 |
| 20260505101107 | 20 | 319 | 3.2 | 8.0 | 0.00 | 0.53 | 0.00 | 50 | 1008.9 |
| 20260505100807 | 19 | 306 | 6.4 | 8.0 | 0.00 | 0.53 | 0.00 | 47 | 1008.9 |
| 20260505100506 | 19 | 69 | 3.2 | 8.0 | 0.00 | 0.53 | 0.00 | 48 | 1009.0 |
| 20260505100205 | 19 | 38 | 4.8 | 9.7 | 0.00 | 0.53 | 0.00 | 48 | 1009.0 |
| 20260505095904 | 19 | 30 | 3.2 | 9.7 | 0.00 | 0.53 | 0.00 | 48 | 1009.1 |
| 20260505095603 | 19 | 60 | 4.8 | 11.3 | 0.00 | 0.53 | 0.00 | 50 | 1009.1 |
| 20260505095304 | 19 | 47 | 4.8 | 11.3 | 0.00 | 0.53 | 0.00 | 53 | 1009.1 |
| 20260505095001 | 20 | 20 | 4.8 | 11.3 | 0.00 | 0.53 | 0.00 | 51 | 1009.1 |
| 20260505094701 | 20 | 98 | 4.8 | 9.7 | 0.00 | 0.53 | 0.00 | 55 | 1009.2 |
| 20260505094400 | 19 | 139 | 3.2 | 12.9 | 0.00 | 0.53 | 0.00 | 55 | 1009.2 |
| 20260505094059 | 19 | 83 | 6.4 | 12.9 | 0.00 | 0.53 | 0.00 | 54 | 1009.3 |
| 20260505093758 | 20 | 53 | 8.0 | 12.9 | 0.00 | 0.53 | 0.00 | 53 | 1009.2 |
| 20260505093457 | 20 | 262 | 3.2 | 12.9 | 0.00 | 0.53 | 0.00 | 53 | 1009.2 |
| 20260505093156 | 20 | 139 | 6.4 | 12.9 | 0.00 | 0.53 | 0.00 | 53 | 1009.4 |
| 20260505092855 | 20 | 137 | 3.2 | 9.7 | 0.00 | 0.53 | 0.00 | 52 | 1009.3 |
| 20260505092554 | 20 | 63 | 4.8 | 9.7 | 0.00 | 0.53 | 0.00 | 53 | 1009.4 |
| 20260505092253 | 19 | 18 | 3.2 | 11.3 | 0.00 | 0.53 | 0.00 | 53 | 1009.4 |
| 20260505091953 | 20 | 223 | 3.2 | 11.3 | 0.00 | 0.53 | 0.00 | 54 | 1009.6 |
| 20260505091652 | 20 | 221 | 6.4 | 11.3 | 0.00 | 0.53 | 0.00 | 56 | 1009.6 |
| 20260505091351 | 19 | 256 | 3.2 | 11.3 | 0.00 | 0.53 | 0.00 | 57 | 1009.7 |
| 20260505091050 | 19 | 192 | 4.8 | 11.3 | 0.00 | 0.53 | 0.00 | 57 | 1009.7 |
| 20260505090749 | 18 | 241 | 3.2 | 11.3 | 0.00 | 0.53 | 0.00 | 59 | 1009.7 |
| 20260505090448 | 18 | 203 | 6.4 | 11.3 | 0.00 | 0.53 | 0.00 | 59 | 1009.8 |
| 20260505090147 | 18 | 216 | 4.8 | 9.7 | 0.00 | 0.53 | 0.00 | 59 | 1009.8 |
| 20260505085846 | 18 | 200 | 4.8 | 9.7 | 0.00 | 0.53 | 0.00 | 61 | 1009.7 |
| 20260505085545 | 18 | 215 | 4.8 | 9.7 | 0.00 | 0.53 | 0.00 | 60 | 1009.7 |
| 20260505085244 | 18 | 145 | 4.8 | 6.4 | 0.00 | 0.53 | 0.00 | 61 | 1009.8 |
| 20260505084943 | 17 | 164 | 1.6 | 6.4 | 0.00 | 0.53 | 0.00 | 60 | 1009.7 |
| 20260505084643 | 18 | 352 | 1.6 | 6.4 | 0.00 | 0.53 | 0.00 | 59 | 1009.8 |
| 20260505084342 | 18 | 242 | 1.6 | 8.0 | 0.00 | 0.53 | 0.00 | 59 | 1009.8 |
| 20260505084041 | 18 | 261 | 4.8 | 11.3 | 0.00 | 0.53 | 0.00 | 60 | 1009.8 |
| 20260505083740 | 18 | 210 | 3.2 | 11.3 | 0.00 | 0.53 | 0.00 | 60 | 1009.9 |
| 20260505083439 | 18 | 211 | 6.4 | 11.3 | 0.00 | 0.53 | 0.00 | 62 | 1009.9 |
| 20260505083138 | 17 | 166 | 4.8 | 11.3 | 0.00 | 0.53 | 0.00 | 62 | 1010.0 |
| 20260505082837 | 18 | 120 | 3.2 | 11.3 | 0.00 | 0.53 | 0.00 | 63 | 1010.0 |
| 20260505082536 | 18 | 175 | 4.8 | 11.3 | 0.00 | 0.53 | 0.00 | 62 | 1010.1 |
| 20260505082236 | 17 | 217 | 3.2 | 11.3 | 0.00 | 0.53 | 0.00 | 62 | 1010.0 |
| 20260505081935 | 17 | 247 | 6.4 | 11.3 | 0.00 | 0.53 | 0.00 | 62 | 1009.9 |
| 20260505081633 | 17 | 191 | 4.8 | 11.3 | 0.00 | 0.53 | 0.00 | 63 | 1010.0 |
| 20260505081333 | 17 | 198 | 4.8 | 11.3 | 0.00 | 0.53 | 0.00 | 62 | 1010.0 |
| 20260505081032 | 17 | 226 | 3.2 | 8.0 | 0.00 | 0.53 | 0.00 | 61 | 1010.0 |
| 20260505080731 | 17 | 217 | 3.2 | 8.0 | 0.00 | 0.53 | 0.00 | 62 | 1009.9 |
| 20260505080430 | 17 | 221 | 3.2 | 8.0 | 0.00 | 0.53 | 0.00 | 63 | 1010.0 |
| 20260505080129 | 16 | 92 | 1.6 | 8.0 | 0.00 | 0.53 | 0.00 | 64 | 1010.0 |
| 20260505075828 | 16 | 75 | 3.2 | 8.0 | 0.00 | 0.53 | 0.00 | 63 | 1009.9 |
| 20260505075527 | 16 | 137 | 4.8 | 8.0 | 0.00 | 0.53 | 0.00 | 65 | 1010.0 |
| 20260505075226 | 16 | 161 | 3.2 | 9.7 | 0.00 | 0.53 | 0.00 | 68 | 1010.1 |
| 20260505074925 | 16 | 233 | 6.4 | 11.3 | 0.00 | 0.53 | 0.00 | 68 | 1010.0 |
| 20260505074627 | 16 | 209 | 4.8 | 11.3 | 0.00 | 0.53 | 0.00 | 66 | 1010.1 |
| 20260505074023 | 15 | 86 | 1.6 | 6.4 | 0.00 | 0.53 | 0.00 | 68 | 1010.2 |
| 20260505073722 | 15 | 301 | 3.2 | 6.4 | 0.00 | 0.53 | 0.00 | 67 | 1010.3 |
| 20260505073421 | 15 | 30 | 1.6 | 9.7 | 0.00 | 0.53 | 0.00 | 66 | 1010.3 |
| 20260505073120 | 15 | 293 | 3.2 | 9.7 | 0.00 | 0.53 | 0.00 | 68 | 1010.4 |
| 20260505072819 | 15 | 266 | 6.4 | 14.5 | 0.00 | 0.53 | 0.00 | 69 | 1010.5 |
| 20260505072518 | 15 | 249 | 4.8 | 14.5 | 0.00 | 0.53 | 0.00 | 72 | 1010.5 |
| 20260505072217 | 15 | 236 | 8.0 | 14.5 | 0.00 | 0.53 | 0.00 | 72 | 1010.5 |
| 20260505071916 | 15 | 254 | 4.8 | 11.3 | 0.00 | 0.53 | 0.00 | 72 | 1010.5 |
| 20260505071616 | 14 | 262 | 3.2 | 11.3 | 0.00 | 0.53 | 0.00 | 72 | 1010.5 |
| 20260505071314 | 14 | 236 | 6.4 | 11.3 | 0.00 | 0.53 | 0.00 | 73 | 1010.5 |
| 20260505071014 | 14 | 220 | 8.0 | 11.3 | 0.00 | 0.53 | 0.00 | 74 | 1010.6 |
| 20260505070713 | 14 | 219 | 4.8 | 12.9 | 0.00 | 0.53 | 0.00 | 75 | 1010.7 |
| 20260505070111 | 13 | 229 | 9.7 | 16.1 | 0.00 | 0.53 | 0.00 | 76 | 1010.7 |
| 20260505065810 | 13 | 234 | 11.3 | 17.7 | 0.00 | 0.53 | 0.00 | 76 | 1010.8 |
| 20260505065509 | 13 | 225 | 11.3 | 17.7 | 0.00 | 0.53 | 0.00 | 77 | 1010.8 |
| 20260505065208 | 13 | 231 | 12.9 | 17.7 | 0.00 | 0.53 | 0.00 | 76 | 1010.7 |
| 20260505064907 | 13 | 229 | 14.5 | 17.7 | 0.00 | 0.53 | 0.00 | 78 | 1010.8 |
| 20260505064606 | 13 | 228 | 14.5 | 17.7 | 0.00 | 0.53 | 0.00 | 77 | 1010.7 |
| 20260505064305 | 13 | 235 | 12.9 | 17.7 | 0.00 | 0.53 | 0.00 | 77 | 1010.7 |
| 20260505064004 | 13 | 237 | 11.3 | 16.1 | 0.00 | 0.53 | 0.00 | 77 | 1010.7 |
| 20260505063704 | 13 | 231 | 12.9 | 16.1 | 0.00 | 0.53 | 0.00 | 77 | 1010.7 |
| 20260505063402 | 13 | 229 | 12.9 | 16.1 | 0.00 | 0.53 | 0.00 | 78 | 1010.8 |
| 20260505063101 | 13 | 223 | 11.3 | 16.1 | 0.00 | 0.53 | 0.00 | 78 | 1010.7 |
| 20260505062800 | 13 | 224 | 12.9 | 16.1 | 0.00 | 0.53 | 0.00 | 78 | 1010.7 |
| 20260505062500 | 13 | 225 | 14.5 | 17.7 | 0.00 | 0.53 | 0.00 | 77 | 1010.8 |
| 20260505062158 | 13 | 225 | 12.9 | 17.7 | 0.00 | 0.53 | 0.00 | 78 | 1010.8 |
| 20260505061858 | 12 | 229 | 14.5 | 17.7 | 0.00 | 0.53 | 0.00 | 78 | 1010.8 |
| 20260505061557 | 12 | 227 | 12.9 | 19.3 | 0.00 | 0.53 | 0.00 | 80 | 1010.9 |
| 20260505061256 | 12 | 227 | 9.7 | 19.3 | 0.00 | 0.53 | 0.00 | 81 | 1010.8 |
| 20260505060955 | 12 | 225 | 14.5 | 20.9 | 0.00 | 0.53 | 0.00 | 80 | 1010.8 |
| 20260505060654 | 12 | 217 | 16.1 | 20.9 | 0.00 | 0.53 | 0.00 | 80 | 1010.8 |
| 20260505060353 | 12 | 224 | 16.1 | 20.9 | 0.00 | 0.53 | 0.00 | 81 | 1010.8 |
| 20260505060052 | 12 | 225 | 12.9 | 16.1 | 0.00 | 0.53 | 0.00 | 80 | 1010.8 |
| 20260505055751 | 12 | 223 | 11.3 | 14.5 | 0.00 | 0.53 | 0.00 | 80 | 1010.7 |
| 20260505055450 | 12 | 224 | 11.3 | 14.5 | 0.00 | 0.53 | 0.00 | 80 | 1010.7 |
| 20260505055149 | 12 | 223 | 12.9 | 14.5 | 0.00 | 0.53 | 0.00 | 79 | 1010.7 |
| 20260505054848 | 12 | 216 | 9.7 | 12.9 | 0.00 | 0.53 | 0.00 | 79 | 1010.6 |
| 20260505054547 | 12 | 207 | 9.7 | 11.3 | 0.00 | 0.53 | 0.00 | 78 | 1010.7 |
| 20260505054246 | 11 | 217 | 6.4 | 9.7 | 0.00 | 0.53 | 0.00 | 78 | 1010.6 |
| 20260505053945 | 11 | 144 | 3.2 | 6.4 | 0.00 | 0.53 | 0.00 | 78 | 1010.5 |
| 20260505053645 | 11 | 137 | 4.8 | 6.4 | 0.00 | 0.53 | 0.00 | 79 | 1010.5 |
| 20260505053343 | 11 | 143 | 3.2 | 6.4 | 0.00 | 0.53 | 0.00 | 79 | 1010.6 |
| 20260505053043 | 11 | 137 | 3.2 | 6.4 | 0.00 | 0.53 | 0.00 | 79 | 1010.6 |
| 20260505052742 | 11 | 177 | 3.2 | 8.0 | 0.00 | 0.53 | 0.00 | 79 | 1010.6 |
| 20260505052441 | 11 | 224 | 3.2 | 11.3 | 0.00 | 0.53 | 0.00 | 79 | 1010.6 |
| 20260505052140 | 11 | 206 | 6.4 | 11.3 | 0.00 | 0.53 | 0.00 | 80 | 1010.7 |
| 20260505051839 | 11 | 222 | 6.4 | 11.3 | 0.00 | 0.53 | 0.00 | 80 | 1010.6 |
| 20260505051538 | 10 | 225 | 9.7 | 11.3 | 0.00 | 0.53 | 0.00 | 80 | 1010.7 |
| 20260505051238 | 10 | 224 | 8.0 | 11.3 | 0.00 | 0.53 | 0.00 | 81 | 1010.8 |
| 20260505050937 | 10 | 218 | 6.4 | 9.7 | 0.00 | 0.53 | 0.00 | 81 | 1010.8 |
| 20260505050636 | 10 | 214 | 6.4 | 8.0 | 0.00 | 0.53 | 0.00 | 80 | 1010.9 |
| 20260505050335 | 10 | 212 | 4.8 | 8.0 | 0.00 | 0.53 | 0.00 | 80 | 1010.8 |
| 20260505041520 | 9 | 211 | 8.0 | 9.7 | 0.03 | 0.53 | 0.00 | 80 | 1011.0 |
| 20260505041219 | 9 | 194 | 6.4 | 8.0 | 0.03 | 0.53 | 0.00 | 81 | 1011.0 |
| 20260505040918 | 9 | 200 | 4.8 | 9.7 | 0.03 | 0.53 | 0.00 | 80 | 1011.0 |
| 20260505040617 | 9 | 224 | 6.4 | 9.7 | 0.03 | 0.53 | 0.00 | 80 | 1011.0 |
| 20260505040317 | 9 | 223 | 8.0 | 9.7 | 0.03 | 0.53 | 0.00 | 81 | 1010.9 |
| 20260505040016 | 9 | 222 | 8.0 | 9.7 | 0.00 | 0.51 | 0.00 | 80 | 1010.9 |
| 20260505035715 | 9 | 225 | 6.4 | 12.9 | 0.00 | 0.51 | 0.00 | 80 | 1010.9 |
| 20260505035414 | 9 | 223 | 6.4 | 12.9 | 0.00 | 0.51 | 0.00 | 80 | 1010.9 |
| 20260505035113 | 9 | 213 | 8.0 | 12.9 | 0.00 | 0.51 | 0.00 | 80 | 1010.9 |
| 20260505034812 | 9 | 215 | 4.8 | 9.7 | 0.00 | 0.51 | 0.00 | 80 | 1011.0 |
| 20260505034511 | 9 | 225 | 8.0 | 9.7 | 0.00 | 0.51 | 0.00 | 80 | 1010.9 |
| 20260505034210 | 9 | 225 | 8.0 | 9.7 | 0.00 | 0.51 | 0.00 | 80 | 1010.9 |
| 20260505033909 | 9 | 223 | 6.4 | 9.7 | 0.00 | 0.51 | 0.00 | 80 | 1010.9 |
| 20260505033608 | 9 | 225 | 4.8 | 6.4 | 0.00 | 0.51 | 0.00 | 81 | 1010.9 |
| 20260505033307 | 9 | 225 | 4.8 | 4.8 | 0.00 | 0.51 | 0.00 | 80 | 1010.9 |
| 20260505033006 | 9 | 227 | 3.2 | 4.8 | 0.00 | 0.51 | 0.00 | 79 | 1010.9 |
| 20260505032705 | 9 | 222 | 4.8 | 8.0 | 0.00 | 0.51 | 0.00 | 80 | 1010.9 |
| 20260505032405 | 9 | 207 | 3.2 | 9.7 | 0.00 | 0.51 | 0.00 | 80 | 1011.0 |
| 20260505032104 | 9 | 223 | 4.8 | 11.3 | 0.00 | 0.51 | 0.00 | 80 | 1011.1 |
| 20260505031803 | 9 | 220 | 8.0 | 11.3 | 0.00 | 0.51 | 0.00 | 80 | 1011.1 |
| 20260505031502 | 9 | 208 | 8.0 | 11.3 | 0.00 | 0.51 | 0.00 | 80 | 1011.1 |
| 20260505031201 | 10 | 220 | 4.8 | 11.3 | 0.00 | 0.51 | 0.00 | 80 | 1011.1 |
| 20260505030900 | 10 | 210 | 9.7 | 11.3 | 0.00 | 0.51 | 0.00 | 81 | 1011.1 |
| 20260505030559 | 10 | 220 | 6.4 | 6.4 | 0.00 | 0.51 | 0.00 | 80 | 1011.1 |
| 20260505030258 | 9 | 223 | 4.8 | 6.4 | 0.00 | 0.51 | 0.00 | 80 | 1011.2 |
| 20260505025957 | 9 | 223 | 4.8 | 6.4 | 0.00 | 0.51 | 0.00 | 80 | 1011.1 |
| 20260505025656 | 10 | 225 | 6.4 | 8.0 | 0.00 | 0.51 | 0.00 | 80 | 1011.2 |
| 20260505025355 | 9 | 225 | 6.4 | 8.0 | 0.00 | 0.51 | 0.00 | 80 | 1011.3 |
| 20260505025054 | 10 | 225 | 6.4 | 8.0 | 0.00 | 0.51 | 0.00 | 80 | 1011.4 |
| 20260505024754 | 10 | 225 | 6.4 | 9.7 | 0.00 | 0.51 | 0.00 | 81 | 1011.4 |
| 20260505024453 | 10 | 225 | 6.4 | 9.7 | 0.00 | 0.51 | 0.00 | 82 | 1011.4 |
| 20260505024152 | 9 | 227 | 6.4 | 9.7 | 0.00 | 0.51 | 0.00 | 82 | 1011.4 |
| 20260505023851 | 10 | 226 | 6.4 | 8.0 | 0.00 | 0.51 | 0.00 | 81 | 1011.4 |
| 20260505023550 | 10 | 224 | 6.4 | 8.0 | 0.00 | 0.51 | 0.00 | 82 | 1011.5 |
| 20260505023249 | 10 | 223 | 4.8 | 9.7 | 0.00 | 0.51 | 0.00 | 82 | 1011.6 |
| 20260505022948 | 10 | 228 | 6.4 | 9.7 | 0.00 | 0.51 | 0.00 | 82 | 1011.6 |
| 20260505022046 | 10 | 226 | 9.7 | 12.9 | 0.00 | 0.51 | 0.00 | 82 | 1011.7 |
| 20260505021745 | 10 | 225 | 9.7 | 12.9 | 0.00 | 0.51 | 0.00 | 82 | 1011.7 |
| 20260505021444 | 10 | 227 | 9.7 | 12.9 | 0.00 | 0.51 | 0.00 | 83 | 1011.8 |
| 20260505021143 | 10 | 226 | 8.0 | 11.3 | 0.00 | 0.51 | 0.00 | 81 | 1011.8 |
| 20260505020843 | 10 | 225 | 8.0 | 12.9 | 0.00 | 0.51 | 0.00 | 81 | 1011.7 |
| 20260505020541 | 10 | 225 | 8.0 | 12.9 | 0.00 | 0.51 | 0.00 | 82 | 1011.8 |
| 20260505020240 | 10 | 227 | 8.0 | 12.9 | 0.00 | 0.51 | 0.00 | 81 | 1011.8 |
| 20260505015939 | 10 | 234 | 4.8 | 8.0 | 0.00 | 0.51 | 0.00 | 79 | 1011.9 |
| 20260505015638 | 10 | 224 | 6.4 | 8.0 | 0.00 | 0.51 | 0.00 | 80 | 1011.8 |
| 20260505015338 | 10 | 225 | 8.0 | 8.0 | 0.00 | 0.51 | 0.00 | 80 | 1011.8 |
| 20260505015037 | 10 | 225 | 6.4 | 9.7 | 0.00 | 0.51 | 0.00 | 79 | 1011.8 |
| 20260505014736 | 10 | 225 | 6.4 | 9.7 | 0.00 | 0.51 | 0.00 | 80 | 1011.7 |
| 20260505014435 | 10 | 225 | 8.0 | 9.7 | 0.00 | 0.51 | 0.00 | 80 | 1011.8 |
| 20260505014134 | 10 | 214 | 4.8 | 8.0 | 0.00 | 0.51 | 0.00 | 80 | 1011.8 |
| 20260505013833 | 10 | 208 | 4.8 | 8.0 | 0.00 | 0.51 | 0.00 | 79 | 1011.8 |
| 20260505013532 | 10 | 223 | 4.8 | 8.0 | 0.00 | 0.51 | 0.00 | 79 | 1011.8 |
| 20260505013231 | 10 | 225 | 4.8 | 8.0 | 0.00 | 0.51 | 0.00 | 80 | 1011.9 |
| 20260505012930 | 10 | 222 | 6.4 | 8.0 | 0.00 | 0.51 | 0.00 | 81 | 1012.0 |
| 20260505012629 | 10 | 225 | 8.0 | 8.0 | 0.00 | 0.51 | 0.00 | 80 | 1012.1 |
| 20260505012328 | 10 | 225 | 6.4 | 8.0 | 0.00 | 0.51 | 0.00 | 79 | 1011.9 |
| 20260505012028 | 10 | 225 | 6.4 | 8.0 | 0.00 | 0.51 | 0.00 | 78 | 1011.9 |
| 20260505011727 | 10 | 225 | 6.4 | 9.7 | 0.00 | 0.51 | 0.00 | 78 | 1012.0 |
| 20260505011426 | 10 | 225 | 6.4 | 9.7 | 0.00 | 0.51 | 0.00 | 79 | 1012.0 |
| 20260505011124 | 10 | 221 | 8.0 | 9.7 | 0.00 | 0.51 | 0.00 | 79 | 1012.0 |
| 20260505010823 | 11 | 222 | 8.0 | 9.7 | 0.00 | 0.51 | 0.00 | 79 | 1012.0 |
| 20260505010522 | 11 | 225 | 8.0 | 9.7 | 0.00 | 0.51 | 0.00 | 79 | 1012.0 |
| 20260505010221 | 11 | 224 | 6.4 | 8.0 | 0.00 | 0.51 | 0.00 | 79 | 1012.0 |
| 20260505005921 | 11 | 225 | 6.4 | 6.4 | 0.00 | 0.51 | 0.00 | 79 | 1012.0 |
| 20260505005620 | 11 | 225 | 4.8 | 6.4 | 0.00 | 0.51 | 0.00 | 79 | 1012.0 |
| 20260505005319 | 11 | 222 | 4.8 | 6.4 | 0.00 | 0.51 | 0.00 | 79 | 1012.0 |
| 20260505005018 | 11 | 223 | 4.8 | 6.4 | 0.00 | 0.51 | 0.00 | 79 | 1012.1 |
| 20260505004717 | 11 | 218 | 3.2 | 4.8 | 0.00 | 0.51 | 0.00 | 80 | 1012.0 |
| 20260505004416 | 11 | 225 | 3.2 | 4.8 | 0.00 | 0.51 | 0.00 | 80 | 1012.1 |
| 20260505004115 | 11 | 213 | 1.6 | 3.2 | 0.00 | 0.51 | 0.00 | 80 | 1012.0 |
| 20260505003814 | 11 | 222 | 1.6 | 6.4 | 0.00 | 0.51 | 0.00 | 80 | 1012.1 |
| 20260505003513 | 11 | 191 | 1.6 | 6.4 | 0.00 | 0.51 | 0.00 | 79 | 1012.1 |
| 20260505003213 | 11 | 212 | 3.2 | 6.4 | 0.00 | 0.51 | 0.00 | 79 | 1012.2 |
| 20260505002912 | 11 | 218 | 6.4 | 6.4 | 0.00 | 0.51 | 0.00 | 79 | 1012.2 |
| 20260505002610 | 11 | 214 | 4.8 | 6.4 | 0.00 | 0.51 | 0.00 | 79 | 1012.1 |